[[{"header":{"parameterUnit":"m.s-1","parameterCategory":2,"la1":30.2991,"la2":30.254,"lo1":-89.0895,"lo2":-89.0444,"dy":0.0017,"dx":0.0017,"nx":28,"ny":28,"refTime":"2024-08-20T09:00:00:Z","depth":"0","parameterNumber":2,"parameterNumberName":"U-component_of_CURRENTS"},"data":[0,0,0,0,0,0,0,0,0,0,0,0,0,0,0,0,0,0,0,0,0,0,0,0,0,0,0,0,0,0,0,0,0,0,0,0,0,0,0,0,0,0,0,0,0,0,0,0,0,0,0,0,0,0,0,0,0,0,0.2652,0.2653,0,0.2723,0.2723,0.2724,0.2737,0.2737,0.2736,0.2736,0.2757,0.2758,0.2759,0,0,0,0,0,0,0,0,0,0,0,0,0,0.2536,0.2538,0.2652,0.2653,0.2654,0.2723,0.2723,0.2724,0.2737,0.2736,0.2736,0.2736,0.2757,0.2758,0.2759,0,0,0,0,0,0,0,0,0,0,0,0,0,0.2592,0.2538,0.2652,0.2671,0.2673,0.2722,0.2723,0.2724,0.2737,0.2736,0.2736,0.2735,0.2756,0.2758,0.2759,0.2778,0,0,0.2763,0.2764,0,0,0,0,0,0,0,0,0.2589,0.2596,0.2667,0.2669,0.2672,0.2723,0.269,0.2741,0.2737,0.271,0.2736,0.2735,0.2743,0.2745,0.2757,0.2779,0.278,0.2763,0.2764,0.2765,0.2765,0,0,0,0,0,0,0,0.2585,0.2593,0.2677,0.2668,0.2672,0.2678,0.2685,0.27,0.2726,0.2713,0.2714,0.2726,0.2744,0.2756,0.2758,0.278,0.2763,0.2764,0.2765,0.2766,0.2837,0.2838,0,0,0,0,0,0,0.2582,0.2589,0.2675,0.268,0.2631,0.2681,0.2689,0.2705,0.2727,0.2731,0.2727,0.2727,0.2754,0.2756,0.2758,0.2801,0.2765,0.2766,0.2767,0.2836,0.2837,0.2838,0,0,0,0,0,0,0.2579,0.2589,0.2672,0.2638,0.2649,0.2684,0.2702,0.2707,0.2722,0.2739,0.2741,0.2737,0.2753,0.2756,0.2781,0.2801,0.2767,0.2768,0.2835,0.2836,0.2838,0.2874,0,0,0,0,0,0,0.2575,0.2587,0.26,0.2638,0.2651,0.271,0.2703,0.2709,0.2731,0.2731,0.2748,0.2749,0.2753,0.2779,0.2783,0.2802,0.2769,0.2833,0.2835,0.2837,0.2871,0.2876,0.2881,0,0,0,0,0,0.2571,0.2593,0.26,0.2611,0.2667,0.2711,0.2719,0.2739,0.2732,0.2748,0.2758,0.2749,0.2794,0.2782,0.2785,0.2805,0.2832,0.2835,0.2837,0.2869,0.2875,0.2881,0,0,0,0,0,0,0.2554,0.2598,0.2606,0.2642,0.2677,0.2715,0.2736,0.2742,0.2764,0.2763,0.2765,0.2768,0.2796,0.2797,0.2783,0.2832,0.2811,0.2815,0.2834,0.284,0.2845,0.2846,0.277,0,0,0,0,0,0.2556,0.2581,0.2623,0.2653,0.2672,0.2702,0.2722,0.2737,0.2761,0.277,0.2778,0.2791,0.281,0.2821,0.2836,0.2865,0.2904,0.288,0.2885,0.2889,0.2893,0.2972,0.2985,0.2846,0.2846,0.2846,0,0,0.2557,0.2586,0.26,0.2651,0.2679,0.2706,0.2712,0.2751,0.277,0.2769,0.2793,0.2807,0.2821,0.2854,0.2866,0.2857,0.2955,0.2892,0.2895,0.2897,0.2976,0.2989,0.3002,0.2848,0.2848,0.2847,0,0,0.2569,0.2601,0.2621,0.265,0.2698,0.272,0.273,0.2769,0.2785,0.2818,0.2819,0.2849,0.2872,0.2893,0.2904,0.2945,0.2976,0.2946,0.2975,0.3052,0.3064,0.3076,0.317,0.319,0.2951,0.2951,0.2951,0,0.2568,0.26,0.2635,0.2661,0.2687,0.2722,0.2747,0.2773,0.2812,0.284,0.283,0.289,0.2895,0.2945,0.2955,0.2957,0.3012,0.2951,0.306,0.3071,0.3082,0.3177,0.3197,0.2953,0.2953,0.2953,0.2952,0,0.2589,0.2616,0.2636,0.2675,0.2708,0.2742,0.2782,0.2817,0.2839,0.2868,0.2926,0.2943,0.2985,0.2987,0.2981,0.3056,0.3076,0.3056,0.3046,0.3099,0.3195,0.3216,0.2956,0.2955,0.2955,0.2954,0,0,0.2575,0.2637,0.2639,0.2661,0.2719,0.2748,0.2796,0.2859,0.2902,0.2938,0.3001,0.3026,0.3049,0.3062,0.3065,0.3118,0.3241,0.3118,0.3121,0.3215,0.344,0.3445,0.3469,0.3246,0.3249,0.3251,0.3487,0,0.2578,0.2618,0.2652,0.2692,0.2719,0.2776,0.2821,0.2883,0.2937,0.3007,0.305,0.3103,0.3074,0.3102,0.3154,0.3217,0.3294,0.3181,0.3372,0.3379,0.3379,0.3492,0.3334,0.3529,0.3508,0.3511,0.3514,0,0.2574,0.2607,0.2641,0.2712,0.2731,0.2759,0.2854,0.29,0.3011,0.3064,0.3135,0.3173,0.3259,0.322,0.3381,0.3314,0.3384,0.3429,0.3439,0.3442,0.3422,0.3467,0.3568,0.344,0.3546,0.3544,0.3541,0,0.2536,0.2594,0.2621,0.2642,0.2729,0.2763,0.2811,0.2915,0.2981,0.31,0.3175,0.3272,0.3347,0.3434,0.3536,0.3473,0.3729,0.3656,0.3736,0.3738,0.3639,0.3626,0.3634,0.3788,0.3787,0.3787,0.3786,0,0.2522,0.2543,0.2602,0.2621,0.2673,0.2735,0.2812,0.2886,0.3009,0.3109,0.3192,0.3304,0.3405,0.3555,0.3611,0.3771,0.3809,0.3779,0.3809,0.3649,0.3636,0.3545,0.3487,0.3796,0.3794,0.3792,0.379,0,0.248,0.2516,0.2555,0.2632,0.2655,0.2689,0.2805,0.2877,0.299,0.3127,0.3175,0.3374,0.3576,0.3699,0.3884,0.389,0.3914,0.4065,0.3886,0.3888,0.3775,0.3725,0.3694,0.3587,0.4172,0.4174,0.4175,0,0.2467,0.248,0.2546,0.2582,0.2616,0.2677,0.2741,0.2854,0.2937,0.3175,0.325,0.3493,0.3655,0.3952,0.4039,0.4191,0.4027,0.4105,0.393,0.3786,0.3753,0.3587,0.3485,0.3832,0.383,0.3829,0.3828,0,0.2461,0.2478,0.2523,0.2581,0.2632,0.2686,0.2773,0.2829,0.2986,0.3117,0.3331,0.3477,0.3779,0.3882,0.4086,0.4135,0.3878,0.4084,0.3971,0.3533,0.3316,0.322,0.3678,0.3817,0.3818,0.3819,0.3819,0.382,0.247,0.2496,0.2557,0.2609,0.2655,0.2695,0.272,0.2827,0.2945,0.3117,0.3315,0.3494,0.3665,0.3931,0.397,0.3896,0.3866,0.3736,0.3712,0.3576,0.3377,0.3832,0.3969,0.3971,0.3973,0.3974,0.3976,0,0.2504,0.2546,0.2596,0.2647,0.2672,0.2694,0.2757,0.2767,0.2865,0.3054,0.3226,0.3396,0.3494,0.3598,0.3635,0.3521,0.3326,0.3406,0.3093,0.3028,0.3475,0.3359,0.3323,0.3323,0.3323,0.3323,0.3324,0.3324,0.2539,0.2596,0.2616,0.2657,0.2678,0.2653,0.2661,0.2671,0.2756,0.2865,0.2961,0.3108,0.3255,0.3338,0.325,0.3176,0.2911,0.2803,0.2798,0.3063,0.3087,0.3111,0.2985,0.2872,0.2871,0.2181,0.2176,0.2172]},{"header":{"parameterUnit":"m.s-1","parameterCategory":2,"la1":30.2991,"la2":30.254,"lo1":-89.0895,"lo2":-89.0444,"dy":0.0017,"dx":0.0017,"nx":28,"ny":28,"refTime":"2024-08-20T09:00:00:Z","depth":"0","parameterNumber":3,"parameterNumberName":"V-component_of_CURRENTS"},"data":[0,0,0,0,0,0,0,0,0,0,0,0,0,0,0,0,0,0,0,0,0,0,0,0,0,0,0,0,0,0,0,0,0,0,0,0,0,0,0,0,0,0,0,0,0,0,0,0,0,0,0,0,0,0,0,0,0,0,-0.018,-0.0181,0,-0.0274,-0.0275,-0.0276,-0.0339,-0.0339,-0.034,-0.034,-0.0454,-0.0456,-0.0459,0,0,0,0,0,0,0,0,0,0,0,0,0,-0.0113,-0.0114,-0.0179,-0.0181,-0.0182,-0.0274,-0.0275,-0.0276,-0.0339,-0.0339,-0.034,-0.034,-0.0453,-0.0456,-0.0459,0,0,0,0,0,0,0,0,0,0,0,0,0,-0.0168,-0.0114,-0.0179,-0.0224,-0.0228,-0.0273,-0.0275,-0.0277,-0.0339,-0.0339,-0.034,-0.034,-0.0452,-0.0456,-0.046,-0.0473,0,0,-0.0472,-0.0474,0,0,0,0,0,0,0,0,-0.0165,-0.0171,-0.0216,-0.0221,-0.0226,-0.0295,-0.0293,-0.0343,-0.0339,-0.0297,-0.034,-0.0341,-0.0402,-0.041,-0.0427,-0.0479,-0.0484,-0.0472,-0.0475,-0.0477,-0.0478,0,0,0,0,0,0,0,-0.0161,-0.0168,-0.0217,-0.0217,-0.0223,-0.0259,-0.0267,-0.0303,-0.0346,-0.0301,-0.0306,-0.0315,-0.0405,-0.0423,-0.043,-0.0485,-0.0472,-0.0476,-0.0478,-0.048,-0.0551,-0.055,0,0,0,0,0,0,-0.0145,-0.0163,-0.0214,-0.022,-0.0196,-0.026,-0.0269,-0.0273,-0.0345,-0.0357,-0.0315,-0.0318,-0.0416,-0.0425,-0.0434,-0.0441,-0.0477,-0.048,-0.0483,-0.0552,-0.0551,-0.055,0,0,0,0,0,0,-0.0143,-0.0148,-0.0211,-0.0194,-0.0204,-0.026,-0.0264,-0.0274,-0.029,-0.0355,-0.0367,-0.032,-0.0416,-0.0429,-0.0462,-0.0446,-0.0482,-0.0486,-0.0552,-0.0551,-0.0551,-0.0463,0,0,0,0,0,0,-0.014,-0.0147,-0.0143,-0.0192,-0.0205,-0.0229,-0.0264,-0.0275,-0.0295,-0.03,-0.0364,-0.0375,-0.0418,-0.0455,-0.0466,-0.0452,-0.0489,-0.0553,-0.0552,-0.0551,-0.0466,-0.0459,-0.0453,0,0,0,0,0,-0.0138,-0.0129,-0.0142,-0.0148,-0.0198,-0.0229,-0.0238,-0.0281,-0.0294,-0.0297,-0.034,-0.0373,-0.0456,-0.0458,-0.047,-0.0458,-0.0553,-0.0552,-0.0551,-0.0469,-0.046,-0.0453,0,0,0,0,0,0,-0.0102,-0.0136,-0.0151,-0.0154,-0.0185,-0.0239,-0.0245,-0.0272,-0.0307,-0.031,-0.037,-0.0384,-0.0408,-0.0444,-0.0445,-0.0476,-0.0509,-0.051,-0.0442,-0.0435,-0.0428,-0.0402,-0.0492,0,0,0,0,0,-0.009,-0.0091,-0.0132,-0.0134,-0.0143,-0.019,-0.0207,-0.0234,-0.0273,-0.029,-0.0333,-0.0377,-0.0413,-0.0432,-0.0472,-0.0488,-0.0504,-0.0487,-0.048,-0.0474,-0.0461,-0.0477,-0.0469,-0.0546,-0.0546,-0.0546,0,0,-0.008,-0.0096,-0.0099,-0.0126,-0.0152,-0.0156,-0.0202,-0.0219,-0.0223,-0.0296,-0.031,-0.0357,-0.0413,-0.0433,-0.0446,-0.046,-0.0457,-0.0473,-0.0467,-0.0457,-0.0475,-0.0467,-0.046,-0.0546,-0.0546,-0.0546,0,0,-0.0053,-0.0068,-0.0057,-0.0073,-0.0102,-0.0128,-0.0127,-0.0172,-0.019,-0.0215,-0.0263,-0.0294,-0.0355,-0.0385,-0.041,-0.0388,-0.0424,-0.0404,-0.0347,-0.0361,-0.0355,-0.0349,-0.0341,-0.0335,-0.0398,-0.0398,-0.0398,0,-0.0038,-0.003,-0.006,-0.0052,-0.0058,-0.0107,-0.0095,-0.0119,-0.017,-0.0175,-0.0207,-0.0279,-0.0329,-0.0344,-0.034,-0.0371,-0.038,-0.0371,-0.0351,-0.0346,-0.0342,-0.0335,-0.033,-0.0393,-0.0394,-0.0394,-0.0395,0,-0.0003,0.0004,0.0011,0.001,0.0001,0.0001,-0.003,-0.0037,-0.0065,-0.0096,-0.0121,-0.019,-0.023,-0.0251,-0.0293,-0.0286,-0.03,-0.0341,-0.0366,-0.0328,-0.0323,-0.032,-0.0387,-0.0389,-0.039,-0.0391,0,0,0.003,0.0035,0.004,0.0056,0.0035,0.0036,0.0042,0.0032,0.0051,-0.001,0.0005,-0.0071,-0.0109,-0.0139,-0.0193,-0.0208,-0.0188,-0.0255,-0.0258,-0.0235,-0.02,-0.018,-0.0174,-0.0227,-0.0226,-0.0226,-0.0201,0,0.0066,0.0105,0.0093,0.013,0.0148,0.0121,0.0135,0.0122,0.0101,0.0105,0.0037,0.0017,-0.0065,-0.008,-0.0108,-0.0166,-0.0177,-0.0189,-0.0249,-0.025,-0.0229,-0.0169,-0.0175,-0.0151,-0.0198,-0.0197,-0.0197,0,0.0106,0.0129,0.0175,0.0204,0.0211,0.0229,0.0258,0.0263,0.0252,0.0236,0.0203,0.0142,0.011,0.0031,-0.0039,-0.0043,-0.0111,-0.0161,-0.0162,-0.0171,-0.0224,-0.0202,-0.0143,-0.033,-0.0191,-0.0192,-0.0192,0,0.0154,0.0188,0.0232,0.024,0.0263,0.029,0.0304,0.0307,0.034,0.0325,0.0354,0.0272,0.0263,0.0159,0.0051,0.0004,-0.0009,-0.0093,-0.0137,-0.0136,-0.0165,-0.0167,-0.0285,-0.0141,-0.0141,-0.0141,-0.0141,0,0.0198,0.0234,0.0266,0.0292,0.0361,0.0354,0.0428,0.0429,0.0463,0.0537,0.0432,0.0487,0.0294,0.0254,0.0119,0.0036,0.0043,-0.0101,-0.0123,-0.0133,-0.0132,-0.0318,-0.0419,-0.014,-0.014,-0.014,-0.014,0,0.0241,0.0255,0.0317,0.0364,0.0387,0.0441,0.0521,0.0582,0.0597,0.07,0.0704,0.0662,0.0621,0.0449,0.0309,0.0156,-0.0045,0.0008,0.0026,0.0006,-0.024,-0.0334,-0.0434,-0.0514,-0.0049,-0.0048,-0.0047,0,0.0264,0.0302,0.038,0.0436,0.0464,0.0544,0.0612,0.0646,0.0728,0.0837,0.0909,0.0888,0.0921,0.0732,0.0454,0.024,0.0038,0.0057,-0.0052,-0.0226,-0.0349,-0.042,-0.0487,-0.0053,-0.0053,-0.0052,-0.0052,0,0.032,0.0351,0.0409,0.052,0.0605,0.0702,0.0807,0.0895,0.0974,0.1084,0.1241,0.128,0.1107,0.0901,0.0576,0.0386,-0.0074,0.0059,-0.0139,-0.036,-0.0428,-0.0524,-0.0086,-0.0048,-0.0048,-0.0049,-0.0049,-0.0049,0.0371,0.0426,0.0511,0.0616,0.0718,0.0856,0.0955,0.1098,0.1265,0.1458,0.1496,0.1614,0.1258,0.0829,0.055,-0.0013,-0.0016,-0.0222,-0.0317,-0.0369,-0.0466,0.0006,0.0026,0.0026,0.0026,0.0026,0.0026,0,0.0434,0.0499,0.0604,0.0734,0.0855,0.0895,0.1083,0.1205,0.143,0.1641,0.1796,0.1711,0.1281,0.0788,0.0056,-0.0337,-0.0511,-0.0561,-0.0706,-0.0756,-0.0355,-0.0377,-0.0421,-0.0421,-0.0421,-0.0421,-0.0421,-0.042,0.0475,0.0578,0.0629,0.0824,0.0922,0.1092,0.1205,0.1406,0.1583,0.1837,0.1941,0.1989,0.159,0.0344,-0.0556,-0.0771,-0.104,-0.1067,-0.12,-0.0987,-0.0965,-0.0944,-0.0991,-0.1163,-0.1164,-0.1579,-0.1584,-0.1587]}],[{"header":{"parameterUnit":"m.s-1","parameterCategory":2,"la1":30.2991,"la2":30.254,"lo1":-89.0895,"lo2":-89.0444,"dy":0.0017,"dx":0.0017,"nx":28,"ny":28,"refTime":"2024-08-20T09:00:00:Z","depth":"2","parameterNumber":2,"parameterNumberName":"U-component_of_CURRENTS"},"data":[0,0,0,0,0,0,0,0,0,0,0,0,0,0,0,0,0,0,0,0,0,0,0,0,0,0,0,0,0,0,0,0,0,0,0,0,0,0,0,0,0,0,0,0,0,0,0,0,0,0,0,0,0,0,0,0,0,0,0.2252,0.2253,0,0.231,0.2311,0.2311,0.2325,0.2325,0.2325,0.2324,0.2345,0.2346,0.2347,0,0,0,0,0,0,0,0,0,0,0,0,0,0.2172,0.2174,0.2252,0.2253,0.2253,0.231,0.2311,0.2311,0.2325,0.2325,0.2324,0.2324,0.2344,0.2346,0.2347,0,0,0,0,0,0,0,0,0,0,0,0,0,0.2216,0.2174,0.2252,0.2267,0.2269,0.231,0.2311,0.2312,0.2326,0.2325,0.2324,0.2324,0.2344,0.2345,0.2347,0.2367,0,0,0.2351,0.2352,0,0,0,0,0,0,0,0,0.2214,0.2219,0.2264,0.2266,0.2268,0.231,0.229,0.2328,0.2326,0.2304,0.2324,0.2323,0.233,0.2332,0.2345,0.2368,0.2369,0.2351,0.2352,0.2353,0.2353,0,0,0,0,0,0,0,0.2211,0.2217,0.2275,0.2265,0.2268,0.2277,0.2283,0.2298,0.2319,0.2306,0.2307,0.2314,0.2331,0.2344,0.2346,0.2369,0.2351,0.2352,0.2353,0.2354,0.2423,0.2424,0,0,0,0,0,0,0.2203,0.2214,0.2273,0.2277,0.2239,0.2279,0.2285,0.2297,0.232,0.2323,0.2314,0.2314,0.2342,0.2344,0.2347,0.2393,0.2353,0.2354,0.2355,0.2422,0.2423,0.2424,0,0,0,0,0,0,0.2201,0.2208,0.2271,0.2246,0.2255,0.2281,0.2294,0.2299,0.2323,0.2326,0.2329,0.2335,0.2342,0.2345,0.2362,0.2393,0.2354,0.2356,0.2421,0.2422,0.2423,0.2473,0,0,0,0,0,0,0.2199,0.2207,0.2223,0.2246,0.2256,0.2297,0.2295,0.23,0.2327,0.2328,0.2345,0.2346,0.2341,0.236,0.2363,0.2394,0.2357,0.2419,0.2421,0.2423,0.247,0.2476,0.2481,0,0,0,0,0,0.2196,0.2214,0.2224,0.2231,0.2274,0.2297,0.2304,0.232,0.2329,0.234,0.2349,0.2346,0.2375,0.2362,0.2366,0.2398,0.2418,0.2421,0.2423,0.2468,0.2475,0.2481,0,0,0,0,0,0,0.2187,0.2217,0.2229,0.2255,0.2277,0.23,0.2319,0.2331,0.2351,0.2357,0.2357,0.2358,0.2389,0.2384,0.237,0.2422,0.2397,0.24,0.243,0.2437,0.2443,0.2441,0.2358,0,0,0,0,0,0.2194,0.2215,0.2241,0.2263,0.2278,0.2304,0.232,0.2333,0.2349,0.2359,0.2368,0.2381,0.2402,0.241,0.2423,0.2449,0.2473,0.2473,0.2478,0.2483,0.2484,0.255,0.2562,0.2431,0.2431,0.2431,0,0,0.2194,0.2216,0.2227,0.2263,0.2285,0.2305,0.2313,0.2343,0.236,0.2358,0.2386,0.2404,0.2414,0.2445,0.2458,0.2443,0.2535,0.2486,0.249,0.2489,0.2553,0.2566,0.2578,0.2433,0.2433,0.2432,0,0,0.2199,0.223,0.2247,0.2268,0.2304,0.232,0.2331,0.2362,0.238,0.2411,0.2417,0.2451,0.2474,0.249,0.2502,0.2546,0.2566,0.2552,0.2578,0.2642,0.2653,0.2664,0.2724,0.2739,0.2551,0.2551,0.2552,0,0.2202,0.2229,0.2255,0.2276,0.2298,0.2326,0.2348,0.2371,0.2401,0.243,0.2423,0.2494,0.2499,0.2551,0.2559,0.2562,0.2597,0.2553,0.2651,0.2661,0.2671,0.273,0.2747,0.2554,0.2554,0.2554,0.2553,0,0.2215,0.2241,0.2256,0.2291,0.2316,0.2343,0.2374,0.2407,0.2438,0.2466,0.2531,0.2547,0.2594,0.2601,0.2591,0.2664,0.2668,0.2656,0.2636,0.2688,0.2746,0.2763,0.2558,0.2557,0.2556,0.2556,0,0,0.2201,0.2256,0.2258,0.2283,0.2332,0.2352,0.2396,0.2451,0.25,0.2534,0.2603,0.2635,0.2665,0.2678,0.2685,0.2722,0.2821,0.2714,0.2716,0.2778,0.2971,0.288,0.2889,0.283,0.2833,0.2835,0.2989,0,0.2205,0.2242,0.2271,0.2309,0.2335,0.2385,0.2425,0.248,0.2537,0.2607,0.2652,0.2716,0.2688,0.2728,0.2765,0.2812,0.2863,0.2781,0.2907,0.2911,0.2828,0.2904,0.267,0.2779,0.3005,0.3008,0.301,0,0.2199,0.2232,0.2268,0.2336,0.2354,0.2382,0.2477,0.252,0.2624,0.2676,0.2753,0.2796,0.2871,0.2836,0.2953,0.2904,0.2942,0.2967,0.2974,0.2879,0.2849,0.2761,0.28,0.3036,0.3034,0.3032,0.3031,0,0.2166,0.2225,0.2257,0.2278,0.2357,0.2397,0.2447,0.2546,0.2613,0.2731,0.281,0.2893,0.297,0.3019,0.3069,0.303,0.3192,0.3152,0.311,0.3105,0.2923,0.2896,0.3243,0.3243,0.3242,0.3242,0.3241,0,0.215,0.2176,0.2247,0.2265,0.2323,0.2387,0.2469,0.2539,0.2666,0.2761,0.2847,0.2938,0.3021,0.3117,0.3128,0.3175,0.3255,0.3133,0.3143,0.2933,0.2907,0.313,0.3115,0.3248,0.3246,0.3245,0.3244,0,0.21,0.2145,0.2194,0.2281,0.2306,0.2352,0.2474,0.255,0.2671,0.2805,0.2856,0.3019,0.3135,0.3204,0.331,0.3266,0.3306,0.3302,0.3046,0.302,0.3163,0.3149,0.3277,0.3275,0.3274,0.3272,0.3271,0,0.2081,0.2099,0.2187,0.2226,0.2266,0.2342,0.2406,0.2532,0.2609,0.2841,0.2898,0.3081,0.3159,0.3283,0.3256,0.3282,0.3329,0.3064,0.2927,0.3172,0.317,0.3158,0.3146,0.2725,0.2719,0.2715,0.2711,0,0.2063,0.2096,0.214,0.2208,0.2273,0.2336,0.2425,0.248,0.2646,0.276,0.2916,0.3009,0.3136,0.3046,0.3079,0.3049,0.3028,0.2971,0.3334,0.2732,0.2658,0.2653,0.2659,0.2672,0.2676,0.2679,0.2681,0.2682,0.2063,0.2087,0.2151,0.2204,0.2272,0.2324,0.2339,0.2435,0.2535,0.2639,0.2787,0.282,0.2858,0.277,0.2706,0.2661,0.2848,0.2705,0.2717,0.2734,0.2622,0.2547,0.252,0.2523,0.2525,0.2528,0.253,0,0.2063,0.2097,0.215,0.2211,0.2235,0.2292,0.2349,0.2322,0.2372,0.2461,0.2523,0.2345,0.2302,0.2351,0.2224,0.2217,0.2176,0.2125,0.205,0.2093,0.2131,0.1984,0.1716,0.1713,0.171,0.1707,0,0,0.2081,0.2107,0.2119,0.2147,0.2187,0.2202,0.2204,0.2151,0.2152,0.2086,0.2062,0.2172,0.2282,0.1958,0.1927,0.1803,0.1926,0.1735,0.2397,0.2353,0.2386,0.2484,0.231,0,0,0,0,0]},{"header":{"parameterUnit":"m.s-1","parameterCategory":2,"la1":30.2991,"la2":30.254,"lo1":-89.0895,"lo2":-89.0444,"dy":0.0017,"dx":0.0017,"nx":28,"ny":28,"refTime":"2024-08-20T09:00:00:Z","depth":"2","parameterNumber":3,"parameterNumberName":"V-component_of_CURRENTS"},"data":[0,0,0,0,0,0,0,0,0,0,0,0,0,0,0,0,0,0,0,0,0,0,0,0,0,0,0,0,0,0,0,0,0,0,0,0,0,0,0,0,0,0,0,0,0,0,0,0,0,0,0,0,0,0,0,0,0,0,0.0027,0.0026,0,-0.0043,-0.0044,-0.0045,-0.0097,-0.0097,-0.0098,-0.0098,-0.0192,-0.0194,-0.0197,0,0,0,0,0,0,0,0,0,0,0,0,0,0.0052,0.0052,0.0027,0.0026,0.0025,-0.0043,-0.0044,-0.0045,-0.0097,-0.0098,-0.0098,-0.0098,-0.0192,-0.0194,-0.0197,0,0,0,0,0,0,0,0,0,0,0,0,0,0.0016,0.0052,0.0027,-0.0007,-0.0011,-0.0042,-0.0044,-0.0045,-0.0097,-0.0098,-0.0098,-0.0098,-0.0191,-0.0194,-0.0197,-0.021,0,0,-0.0208,-0.0209,0,0,0,0,0,0,0,0,0.0018,0.0014,-0.0002,-0.0005,-0.0009,-0.006,-0.0069,-0.0101,-0.0097,-0.0067,-0.0098,-0.0098,-0.0148,-0.0155,-0.017,-0.0215,-0.0219,-0.0208,-0.021,-0.0211,-0.0212,0,0,0,0,0,0,0,0.002,0.0017,-0.0003,-0.0002,-0.0007,-0.004,-0.0045,-0.0076,-0.0107,-0.007,-0.0073,-0.0077,-0.0151,-0.0167,-0.0173,-0.022,-0.0208,-0.0211,-0.0213,-0.0214,-0.0281,-0.0281,0,0,0,0,0,0,0.0037,0.002,-0.0001,-0.0005,0.0006,-0.004,-0.0046,-0.0045,-0.0106,-0.0115,-0.0076,-0.0079,-0.0161,-0.0169,-0.0177,-0.0185,-0.0211,-0.0215,-0.0217,-0.0281,-0.0281,-0.0281,0,0,0,0,0,0,0.0038,0.0037,0.0002,0.0007,0.0001,-0.0039,-0.0038,-0.0046,-0.0061,-0.011,-0.012,-0.0083,-0.0162,-0.0172,-0.0196,-0.0189,-0.0216,-0.0219,-0.0282,-0.0281,-0.0281,-0.0208,0,0,0,0,0,0,0.0039,0.0037,0.0042,0.0009,0.0001,-0.0007,-0.0038,-0.0047,-0.0062,-0.0066,-0.0119,-0.0129,-0.0163,-0.019,-0.0199,-0.0195,-0.0222,-0.0282,-0.0282,-0.0281,-0.0211,-0.0206,-0.0201,0,0,0,0,0,0.0041,0.0053,0.0043,0.004,0.001,-0.0006,-0.0013,-0.0045,-0.0062,-0.0062,-0.0097,-0.0127,-0.0194,-0.0193,-0.0203,-0.0199,-0.0282,-0.0282,-0.0281,-0.0213,-0.0207,-0.0201,0,0,0,0,0,0,0.0065,0.0048,0.0036,0.0042,0.0024,-0.0014,-0.0017,-0.004,-0.0069,-0.0073,-0.0122,-0.0134,-0.0154,-0.0186,-0.0183,-0.0218,-0.0244,-0.0245,-0.0189,-0.0183,-0.0178,-0.0156,-0.0225,0,0,0,0,0,0.0074,0.008,0.0055,0.0061,0.0055,0.0019,0.0008,-0.0012,-0.004,-0.0054,-0.0091,-0.0129,-0.016,-0.0177,-0.021,-0.0226,-0.0249,-0.0232,-0.0227,-0.0222,-0.0212,-0.0238,-0.0234,-0.0279,-0.0279,-0.0279,0,0,0.0084,0.0077,0.0078,0.0066,0.0048,0.0048,0.0011,0.0002,-0.0,-0.0059,-0.0073,-0.0113,-0.0161,-0.018,-0.0192,-0.0204,-0.022,-0.0221,-0.0217,-0.0209,-0.0237,-0.0233,-0.0229,-0.0278,-0.0279,-0.0279,0,0,0.011,0.0102,0.0115,0.0107,0.0091,0.0071,0.0073,0.0041,0.0025,0.0007,-0.0036,-0.0065,-0.0115,-0.0145,-0.0167,-0.0154,-0.0193,-0.0169,-0.0124,-0.015,-0.0146,-0.0143,-0.0158,-0.0157,-0.0165,-0.0165,-0.0165,0,0.0121,0.0135,0.0116,0.0127,0.0126,0.0088,0.01,0.008,0.0044,0.0038,0.0013,-0.0054,-0.0098,-0.0117,-0.0115,-0.0141,-0.0158,-0.0142,-0.0142,-0.0139,-0.0137,-0.0153,-0.0153,-0.0161,-0.0162,-0.0162,-0.0162,0,0.0156,0.0167,0.0175,0.0179,0.0176,0.018,0.0157,0.0151,0.0125,0.0101,0.0075,0.0016,-0.0021,-0.0044,-0.0078,-0.0085,-0.0102,-0.0131,-0.0152,-0.0128,-0.0147,-0.0148,-0.0156,-0.0157,-0.0159,-0.0159,0,0,0.0182,0.0196,0.02,0.0216,0.0204,0.021,0.0214,0.0207,0.022,0.0169,0.0175,0.0107,0.0075,0.0047,-0.0001,-0.0028,-0.0034,-0.0068,-0.0071,-0.0073,-0.008,-0.0115,-0.012,-0.0063,-0.0063,-0.0063,-0.0095,0,0.0213,0.0253,0.0247,0.0283,0.0301,0.028,0.0293,0.0284,0.0264,0.0262,0.0196,0.0177,0.011,0.0096,0.0059,-0.0008,-0.0035,-0.0022,-0.0112,-0.0114,-0.0141,-0.0122,-0.0095,-0.0124,-0.0096,-0.0097,-0.0097,0,0.0248,0.0272,0.0316,0.0348,0.0355,0.0373,0.0398,0.0404,0.0389,0.0373,0.0339,0.0284,0.0237,0.0175,0.0078,0.009,0.0015,-0.0044,-0.0047,-0.0105,-0.0151,-0.0148,-0.0128,-0.0099,-0.0099,-0.0098,-0.0098,0,0.0285,0.032,0.0361,0.0371,0.0399,0.0423,0.0439,0.0441,0.0469,0.0447,0.0466,0.0382,0.0363,0.0251,0.0121,0.0102,0.0017,-0.0028,-0.013,-0.0133,-0.014,-0.0144,-0.0095,-0.0095,-0.0095,-0.0095,-0.0095,0,0.0321,0.0355,0.0388,0.0415,0.0478,0.0478,0.0544,0.0546,0.0571,0.063,0.0533,0.0558,0.0383,0.0306,0.0166,0.0024,0.0049,-0.0113,-0.0143,-0.0115,-0.0116,-0.0123,-0.0126,-0.0096,-0.0096,-0.0095,-0.0095,0,0.0355,0.0373,0.0429,0.0477,0.05,0.055,0.0627,0.0678,0.0689,0.0766,0.0766,0.0701,0.0597,0.0416,0.0243,0.0101,-0.0048,-0.0107,-0.0059,-0.0084,-0.0191,-0.019,-0.0222,-0.0224,-0.0225,-0.0226,-0.0227,0,0.0374,0.0408,0.0483,0.0535,0.0564,0.0639,0.07,0.0733,0.0801,0.0866,0.0915,0.0835,0.0792,0.0517,0.0243,-0.001,-0.0042,-0.0151,-0.0199,-0.0178,-0.0204,-0.0201,-0.0198,-0.0174,-0.0174,-0.0174,-0.0175,0,0.0417,0.0446,0.05,0.0607,0.0684,0.0773,0.0867,0.0944,0.1009,0.1075,0.1149,0.1116,0.085,0.0584,0.0221,0.0049,-0.0117,-0.0168,-0.0146,-0.0153,-0.0137,-0.0161,-0.0159,-0.0177,-0.0177,-0.0177,-0.0177,-0.0177,0.0455,0.0504,0.0586,0.0689,0.0781,0.0909,0.1007,0.1114,0.1239,0.1342,0.13,0.1247,0.0945,0.046,0.0171,-0.014,-0.0139,-0.0249,-0.0245,-0.0242,-0.0238,-0.0227,-0.0282,-0.0282,-0.0282,-0.0283,-0.0283,0,0.0505,0.0567,0.0666,0.0798,0.0915,0.0953,0.112,0.1222,0.1389,0.1425,0.1452,0.1153,0.0851,0.0516,0.0052,-0.023,-0.0242,-0.0308,-0.0258,-0.0253,-0.025,-0.0245,-0.0291,-0.0292,-0.0292,-0.0293,0,0,0.0539,0.0637,0.0691,0.089,0.0991,0.116,0.1267,0.1406,0.1471,0.1502,0.1443,0.1317,0.0925,0.0588,0.0218,-0.0033,-0.0078,-0.0083,-0.0048,0.006,0.0067,-0.0191,-0.0175,0,0,0,0,0]}],[{"header":{"parameterUnit":"m.s-1","parameterCategory":2,"la1":30.2991,"la2":30.254,"lo1":-89.0895,"lo2":-89.0444,"dy":0.0017,"dx":0.0017,"nx":28,"ny":28,"refTime":"2024-08-20T09:00:00:Z","depth":"4","parameterNumber":2,"parameterNumberName":"U-component_of_CURRENTS"},"data":[0,0,0,0,0,0,0,0,0,0,0,0,0,0,0,0,0,0,0,0,0,0,0,0,0,0,0,0,0,0,0,0,0,0,0,0,0,0,0,0,0,0,0,0,0,0,0,0,0,0,0,0,0,0,0,0,0,0,0.1283,0.1284,0,0.1329,0.1329,0.133,0.1376,0.1377,0.1377,0.1378,0.1435,0.1436,0.1437,0,0,0,0,0,0,0,0,0,0,0,0,0,0.1258,0.1258,0.1283,0.1284,0.1284,0.1329,0.1329,0.133,0.1376,0.1377,0.1377,0.1378,0.1435,0.1436,0.1437,0,0,0,0,0,0,0,0,0,0,0,0,0,0.1282,0.1258,0.1283,0.1313,0.1317,0.1329,0.133,0.133,0.1376,0.1377,0.1378,0.1379,0.1434,0.1436,0.1437,0.1424,0,0,0.1441,0.1441,0,0,0,0,0,0,0,0,0.128,0.1282,0.1308,0.1311,0.1315,0.1349,0.1342,0.1362,0.1375,0.1352,0.1378,0.1379,0.1407,0.141,0.1415,0.1427,0.1429,0.1441,0.1442,0.1442,0.1443,0,0,0,0,0,0,0,0.1278,0.1281,0.13,0.1309,0.1313,0.1332,0.1337,0.1346,0.1373,0.1354,0.1358,0.1364,0.1409,0.1414,0.1417,0.143,0.1441,0.1442,0.1443,0.1443,0.1524,0.1526,0,0,0,0,0,0,0.1272,0.1279,0.1299,0.1302,0.1301,0.1332,0.1337,0.1336,0.1372,0.1379,0.1363,0.1366,0.1411,0.1415,0.1419,0.1492,0.1442,0.1444,0.1444,0.1523,0.1525,0.1526,0,0,0,0,0,0,0.1271,0.1273,0.1297,0.1293,0.1297,0.1331,0.133,0.1336,0.1374,0.1379,0.1386,0.1398,0.1412,0.1417,0.1461,0.1492,0.1444,0.1445,0.1521,0.1524,0.1525,0.1583,0,0,0,0,0,0,0.127,0.1272,0.1287,0.1292,0.1297,0.1322,0.1329,0.1336,0.1374,0.1379,0.1411,0.1415,0.1413,0.1459,0.1462,0.1493,0.1446,0.152,0.1522,0.1525,0.1579,0.1587,0.1593,0,0,0,0,0,0.1269,0.1277,0.1287,0.1291,0.131,0.1323,0.1328,0.1355,0.1375,0.1393,0.1423,0.1416,0.1478,0.1462,0.1465,0.1496,0.1518,0.1522,0.1525,0.1576,0.1585,0.1593,0,0,0,0,0,0,0.1272,0.1283,0.1294,0.1306,0.1323,0.1331,0.1353,0.1372,0.1409,0.1424,0.1434,0.144,0.149,0.1484,0.1467,0.1527,0.1497,0.15,0.1535,0.1543,0.155,0.1549,0.1447,0,0,0,0,0,0.1279,0.1291,0.1302,0.1315,0.1325,0.1346,0.1363,0.138,0.1404,0.1422,0.1449,0.1475,0.1498,0.1516,0.1532,0.1564,0.1569,0.1586,0.1593,0.1599,0.1601,0.1637,0.1648,0.1536,0.1536,0.1536,0,0,0.1284,0.1292,0.1301,0.1318,0.1334,0.1349,0.136,0.1388,0.1414,0.1421,0.1479,0.1502,0.1513,0.1554,0.1574,0.1557,0.1636,0.1603,0.1608,0.1606,0.1642,0.1652,0.1662,0.1538,0.1538,0.1538,0,0,0.129,0.1307,0.132,0.1337,0.1366,0.1372,0.1388,0.1417,0.1449,0.1498,0.1513,0.1559,0.1596,0.1612,0.1621,0.1675,0.1672,0.1684,0.1717,0.1753,0.1763,0.1771,0.1801,0.1812,0.1685,0.1685,0.1686,0,0.1301,0.1311,0.1327,0.1345,0.1364,0.1386,0.1405,0.1431,0.1478,0.1511,0.1527,0.1607,0.1622,0.1665,0.169,0.1691,0.171,0.1685,0.1763,0.1771,0.1778,0.1807,0.1818,0.1689,0.1688,0.1688,0.1688,0,0.1308,0.1331,0.134,0.1366,0.1389,0.1409,0.1439,0.1482,0.1527,0.1556,0.1633,0.1663,0.1711,0.1726,0.1728,0.1788,0.1785,0.1769,0.1741,0.1793,0.182,0.183,0.1693,0.1692,0.1691,0.169,0,0,0.1291,0.1336,0.1343,0.1364,0.1405,0.1418,0.147,0.1516,0.156,0.1623,0.1685,0.1743,0.1774,0.1787,0.1801,0.1834,0.1911,0.1832,0.1832,0.186,0.1998,0.1872,0.1871,0.1915,0.1917,0.1919,0.1999,0,0.1295,0.1326,0.1352,0.1388,0.1404,0.1451,0.1491,0.1544,0.1603,0.1668,0.172,0.1783,0.179,0.183,0.1866,0.1909,0.194,0.1891,0.1944,0.1945,0.1825,0.1878,0.1925,0.2007,0.2009,0.2011,0.2012,0,0.1288,0.1311,0.1347,0.1401,0.1414,0.1447,0.1523,0.1566,0.1654,0.1708,0.1784,0.1825,0.1906,0.1893,0.1994,0.1969,0.1988,0.2008,0.2011,0.1876,0.1837,0.1941,0.203,0.2029,0.2027,0.2026,0.2025,0,0.1251,0.1306,0.1335,0.1355,0.1417,0.1462,0.1505,0.1589,0.164,0.1746,0.1809,0.1888,0.196,0.2002,0.2062,0.2042,0.2154,0.2124,0.2023,0.2015,0.2079,0.2069,0.2173,0.2173,0.2172,0.2172,0.2172,0,0.1226,0.1254,0.1329,0.1343,0.1392,0.1452,0.1521,0.1581,0.1676,0.1736,0.1834,0.1894,0.1996,0.2069,0.2089,0.2097,0.2182,0.2036,0.2027,0.2102,0.2094,0.2087,0.2076,0.2175,0.2174,0.2174,0.2173,0,0.1175,0.1224,0.1258,0.1337,0.1375,0.1411,0.1524,0.1565,0.168,0.1768,0.1811,0.1939,0.2038,0.2113,0.2193,0.2132,0.2146,0.2117,0.2209,0.2203,0.1975,0.1966,0.201,0.2006,0.2003,0.2,0.1998,0,0.1145,0.1159,0.1245,0.1271,0.1315,0.1392,0.1438,0.1553,0.1603,0.1775,0.1803,0.1947,0.2019,0.2044,0.2116,0.2145,0.2111,0.2094,0.2011,0.1972,0.196,0.1956,0.1952,0.1993,0.1992,0.1991,0.1991,0,0.1078,0.1119,0.1144,0.1202,0.1256,0.131,0.1397,0.1422,0.1555,0.169,0.1761,0.1811,0.1914,0.1967,0.2009,0.2016,0.2093,0.206,0.2065,0.1987,0.1952,0.1942,0.1941,0.1979,0.1981,0.1982,0.1983,0,0.1026,0.1022,0.1063,0.1108,0.1169,0.1193,0.1256,0.1326,0.1393,0.1589,0.1608,0.1762,0.1895,0.1901,0.1937,0.1944,0.1904,0.1818,0.1835,0.1848,0.1755,0.1684,0.1628,0,0,0,0,0,0.0959,0.0945,0.0969,0.0992,0.105,0.1092,0.1206,0.1273,0.142,0.1431,0.1516,0.1603,0.1669,0.1741,0.1716,0.1849,0.1898,0.1807,0.1803,0.1918,0.1931,0.1834,0,0,0,0,0,0,0.0906,0.0919,0.0924,0.0891,0.0893,0.094,0.1004,0.1108,0.1131,0.1298,0.1352,0.1487,0.1584,0.167,0.1679,0.1701,0.1659,0.1907,0.1903,0.1911,0.1922,0.1933,0.1838,0,0,0,0,0]},{"header":{"parameterUnit":"m.s-1","parameterCategory":2,"la1":30.2991,"la2":30.254,"lo1":-89.0895,"lo2":-89.0444,"dy":0.0017,"dx":0.0017,"nx":28,"ny":28,"refTime":"2024-08-20T09:00:00:Z","depth":"4","parameterNumber":3,"parameterNumberName":"V-component_of_CURRENTS"},"data":[0,0,0,0,0,0,0,0,0,0,0,0,0,0,0,0,0,0,0,0,0,0,0,0,0,0,0,0,0,0,0,0,0,0,0,0,0,0,0,0,0,0,0,0,0,0,0,0,0,0,0,0,0,0,0,0,0,0,0.0097,0.0097,0,0.0069,0.0069,0.0068,0.0044,0.0044,0.0044,0.0044,-0.002,-0.0022,-0.0023,0,0,0,0,0,0,0,0,0,0,0,0,0,0.0096,0.0096,0.0097,0.0097,0.0097,0.0069,0.0069,0.0068,0.0044,0.0044,0.0044,0.0043,-0.002,-0.0022,-0.0023,0,0,0,0,0,0,0,0,0,0,0,0,0,0.0085,0.0096,0.0097,0.0082,0.008,0.0069,0.0068,0.0068,0.0044,0.0044,0.0044,0.0043,-0.0019,-0.0021,-0.0024,-0.003,0,0,-0.003,-0.0031,0,0,0,0,0,0,0,0,0.0085,0.0085,0.0084,0.0083,0.0081,0.006,0.0045,0.0033,0.0044,0.0058,0.0044,0.0043,0.0004,-0.0,-0.0005,-0.0033,-0.0036,-0.0031,-0.0032,-0.0033,-0.0034,0,0,0,0,0,0,0,0.0086,0.0086,0.0086,0.0084,0.0082,0.0064,0.0062,0.0042,0.0032,0.0056,0.0055,0.0052,0.0002,-0.0003,-0.0007,-0.0037,-0.0031,-0.0032,-0.0034,-0.0035,-0.0085,-0.0085,0,0,0,0,0,0,0.0093,0.0087,0.0087,0.0085,0.0083,0.0065,0.0063,0.0067,0.0033,0.0028,0.0052,0.0051,0.0001,-0.0004,-0.0009,-0.0019,-0.0033,-0.0035,-0.0036,-0.0085,-0.0085,-0.0086,0,0,0,0,0,0,0.0093,0.0093,0.0088,0.0085,0.0083,0.0065,0.007,0.0066,0.0062,0.003,0.0024,0.0052,0.0001,-0.0006,-0.0024,-0.0022,-0.0036,-0.0038,-0.0085,-0.0085,-0.0085,-0.004,0,0,0,0,0,0,0.0093,0.0094,0.0101,0.0086,0.0083,0.0085,0.007,0.0066,0.0061,0.0059,0.0028,0.0022,0.0,-0.0021,-0.0027,-0.0026,-0.004,-0.0085,-0.0085,-0.0085,-0.0042,-0.0039,-0.0036,0,0,0,0,0,0.0093,0.0104,0.0102,0.0101,0.0093,0.0086,0.0083,0.0069,0.0062,0.0063,0.0041,0.0023,-0.0025,-0.0022,-0.0029,-0.0029,-0.0085,-0.0085,-0.0085,-0.0043,-0.0039,-0.0036,0,0,0,0,0,0,0.0106,0.0103,0.0099,0.0109,0.01,0.0082,0.0083,0.0073,0.0058,0.0056,0.0025,0.0017,0.0001,-0.002,-0.0016,-0.0044,-0.0059,-0.0061,-0.0025,-0.0022,-0.0019,-0.0004,-0.0042,0,0,0,0,0,0.0114,0.0123,0.0112,0.012,0.0117,0.0102,0.0097,0.0089,0.0073,0.0066,0.0043,0.0018,-0.0004,-0.0017,-0.0038,-0.0052,-0.0076,-0.0058,-0.0055,-0.0053,-0.0046,-0.0077,-0.0076,-0.0086,-0.0086,-0.0086,0,0,0.012,0.012,0.0125,0.0123,0.0116,0.0118,0.0098,0.0097,0.0097,0.0061,0.0054,0.0029,-0.0005,-0.002,-0.0029,-0.0038,-0.0064,-0.0053,-0.005,-0.0044,-0.0077,-0.0076,-0.0075,-0.0086,-0.0086,-0.0086,0,0,0.0137,0.014,0.0151,0.0149,0.0144,0.0134,0.0136,0.0121,0.0113,0.0103,0.0076,0.0054,0.0022,-0.0001,-0.0018,-0.0013,-0.0046,-0.0023,0.0002,-0.0028,-0.0028,-0.0027,-0.0061,-0.0064,-0.0023,-0.0023,-0.0023,0,0.0145,0.016,0.0152,0.0161,0.0164,0.0144,0.0154,0.0144,0.0125,0.0121,0.0107,0.0061,0.0031,0.0012,0.0011,-0.0006,-0.0029,-0.0006,-0.0024,-0.0024,-0.0024,-0.0059,-0.0063,-0.0021,-0.0021,-0.0022,-0.0022,0,0.0167,0.018,0.0187,0.0195,0.0196,0.0202,0.019,0.0189,0.0176,0.0161,0.0142,0.0101,0.0075,0.0057,0.0035,0.0018,0.0,-0.0014,-0.0029,-0.002,-0.0058,-0.0062,-0.0018,-0.0019,-0.002,-0.002,0,0,0.0181,0.02,0.0203,0.0218,0.0217,0.0223,0.0227,0.0224,0.0232,0.0201,0.02,0.0155,0.0132,0.0112,0.0077,0.0047,0.0019,0.002,0.0017,-0.0007,-0.005,-0.0066,-0.0073,0.0003,0.0002,0.0002,-0.0077,0,0.0201,0.0231,0.0233,0.0262,0.0277,0.027,0.0279,0.0275,0.026,0.0253,0.0207,0.019,0.0152,0.0141,0.0105,0.0042,0.0009,0.0041,-0.006,-0.0063,-0.0073,-0.0078,0.0001,-0.0081,-0.0082,-0.0083,-0.0083,0,0.022,0.0241,0.0275,0.0307,0.0313,0.033,0.0348,0.0353,0.0336,0.0323,0.0295,0.0255,0.0208,0.0175,0.0074,0.0097,0.0031,-0.0022,-0.0026,-0.0058,-0.0088,-0.0092,-0.0092,-0.0092,-0.0091,-0.009,-0.009,0,0.0237,0.0271,0.0304,0.0314,0.0342,0.0364,0.038,0.0378,0.0393,0.0369,0.0369,0.0303,0.0271,0.0185,0.0071,0.0074,-0.0045,-0.0057,-0.0135,-0.0137,-0.0119,-0.0118,-0.0125,-0.0125,-0.0125,-0.0125,-0.0125,0,0.0257,0.0285,0.0321,0.0342,0.0392,0.04,0.0445,0.0448,0.0455,0.0472,0.0411,0.0396,0.0273,0.0187,0.0085,-0.0043,-0.0038,-0.013,-0.0157,-0.0099,-0.0096,-0.0123,-0.0121,-0.0128,-0.0127,-0.0127,-0.0126,0,0.0269,0.029,0.0334,0.0381,0.0403,0.0441,0.0501,0.0527,0.0528,0.0547,0.0543,0.0463,0.0347,0.0214,0.0061,-0.0022,-0.0144,-0.0191,-0.0123,-0.0145,-0.0218,-0.0214,-0.0278,-0.0279,-0.028,-0.0281,-0.0281,0,0.0275,0.0299,0.0366,0.0406,0.0433,0.0493,0.0536,0.0563,0.0594,0.0584,0.0592,0.049,0.0417,0.0197,0.0046,-0.0153,-0.0181,-0.0242,-0.0225,-0.0214,-0.0234,-0.0227,-0.0222,-0.0283,-0.0283,-0.0283,-0.0284,0,0.0288,0.0314,0.0355,0.0438,0.0496,0.0561,0.0624,0.0649,0.0674,0.0674,0.0635,0.0516,0.0378,0.0198,0.0036,-0.0105,-0.02,-0.0253,-0.0252,-0.0236,-0.0221,-0.0238,-0.0231,-0.0287,-0.0287,-0.0286,-0.0286,0,0.03,0.0333,0.0395,0.047,0.0546,0.0613,0.0639,0.0677,0.0706,0.0698,0.0675,0.0529,0.0444,0.022,0.0072,-0.0072,-0.0105,-0.0141,-0.0146,-0.0144,-0.0086,-0.0045,-0.0079,0,0,0,0,0,0.031,0.0358,0.0425,0.0512,0.0586,0.0637,0.0697,0.0714,0.0732,0.0717,0.0705,0.0578,0.0353,0.025,0.0105,0.0038,-0.0142,-0.0138,-0.0189,-0.0306,-0.0302,-0.0258,0,0,0,0,0,0,0.0323,0.0385,0.0427,0.0538,0.0602,0.0687,0.0726,0.0732,0.0728,0.0719,0.0602,0.0551,0.0329,0.0446,0.0108,0.0061,0.001,-0.0241,-0.0244,-0.0309,-0.0305,-0.0302,-0.0255,0,0,0,0,0]}]]